Wind_Speed
16 15 15 15 14 13 12 12 11 11 10 9 7 7 8 8 8 9 9 10 8 6 9 13 17 14 14 15 16 18 19 16 16 14 14 12 6 7 10 9 11 11 11 14 12 12 9 13 12 9 7 4 7 12
15 15 16 15 15 14 13 12 11 11 11 8 8 7 7 8 8 8 9 9 10 8 7 9 11 12 14 12 9 13 14 7 10 13 11 13 10 4 8 9 13 9 10 11 12 10 12 13 15 12 11 5 10 12
13 13 14 15 15 14 14 12 11 11 10 8 8 7 7 7 8 8 7 7 8 7 7 6 9 12 16 15 13 11 13 10 10 9 11 11 8 10 7 5 4 8 10 11 10 11 15 16 18 13 7 6 9 10
12 11 12 12 13 13 13 13 11 11 10 9 8 7 7 7 7 8 7 6 6 6 5 2 4 10 12 13 11 10 10 9 9 15 12 6 9 10 6 7 7 10 8 11 16 15 13 13 15 12 8 9 10 8
13 12 11 11 12 11 12 13 11 11 10 9 8 7 7 7 7 7 7 6 6 5 4 4 5 6 10 10 11 12 12 11 8 11 21 13 6 8 8 9 5 7 10 12 8 10 10 11 14 13 10 7 8 9
12 12 11 11 10 10 11 12 11 10 10 9 8 8 7 6 7 7 7 6 4 4 2 5 8 10 9 5 8 7 9 13 16 12 8 14 19 7 8 8 9 8 6 6 10 10 11 10 10 10 11 11 11 8
10 10 10 11 10 10 10 11 10 10 9 9 7 7 6 7 7 6 5 6 6 4 1 5 9 15 10 8 6 7 8 13 18 20 20 13 12 18 12 16 14 11 8 8 8 6 8 10 10 7 6 6 7 11
11 10 9 9 11 11 11 11 11 10 9 8 7 7 6 7 6 6 5 4 3 2 1 5 8 8 9 8 8 7 9 9 18 24 19 11 14 16 26 14 12 11 16 13 11 11 10 10 7 7 3 4 5 9
13 11 10 9 10 10 10 10 11 10 10 9 8 7 6 6 5 5 4 3 4 3 1 3 11 8 7 5 10 9 11 9 9 14 20 14 16 21 12 14 18 18 16 15 15 16 18 18 16 15 12 12 13 15
14 12 11 10 10 9 9 9 10 10 11 10 9 8 8 5 4 3 2 2 3 1 3 5 7 6 7 3 4 3 6 12 7 12 10 20 18 14 19 15 13 11 11 12 15 16 16 14 16 17 15 15 14 13
15 14 12 11 10 9 8 9 9 9 10 11 9 7 7 5 3 2 2 1 3 3 4 3 4 2 4 7 8 7 5 4 5 7 8 4 12 19 22 17 19 20 20 17 14 14 15 16 17 16 17 19 18 17
15 14 12 11 10 10 9 9 9 11 11 9 7 3 4 4 3 3 3 3 3 3 1 2 1 4 6 4 2 4 5 5 4 7 9 6 8 13 16 16 15 20 19 18 17 16 13 17 17 19 19 19 19 19
16 14 12 11 10 11 11 11 10 10 11 9 6 5 3 3 3 4 2 2 4 6 5 4 2 7 3 3 3 4 4 5 4 6 6 8 10 11 10 15 18 19 16 16 17 17 14 15 18 16 17 18 17 16
17 14 13 12 12 12 12 12 11 11 10 8 6 4 2 4 4 6 9 6 4 3 3 2 4 6 9 4 3 3 5 4 4 3 5 9 10 12 11 13 14 16 18 17 17 17 19 14 16 10 11 12 13 13
18 16 15 14 13 13 12 12 12 12 13 8 6 4 5 5 5 6 5 6 4 5 5 9 13 9 8 5 3 3 3 4 5 2 6 9 5 11 12 16 15 18 16 16 16 17 20 15 15 17 18 19 17 16
19 17 16 16 14 13 12 13 13 13 10 4 5 9 5 3 8 4 3 9 8 9 11 10 5 5 4 3 4 4 3 4 5 8 15 20 20 18 14 15 16 17 16 13 16 18 18 14 13 16 17 17 13 10
19 18 17 17 14 12 11 12 13 12 5 8 9 4 4 5 6 2 4 6 7 5 5 4 4 4 3 4 6 6 5 6 17 23 25 24 21 6 7 6 7 16 16 11 16 15 19 17 16 12 16 17 10 9
20 20 18 16 14 13 12 14 14 7 14 10 7 6 4 1 4 7 9 11 11 9 8 9 7 9 5 5 7 12 14 20 21 17 19 17 7 6 3 3 5 12 15 12 11 17 16 17 14 9 10 10 8 9
23 20 18 16 15 13 12 13 9 15 10 7 6 4 4 6 9 11 13 9 7 6 10 8 6 6 8 13 16 16 16 13 13 11 5 3 2 5 3 8 7 5 17 16 14 9 9 8 5 5 7 8 9 9
22 20 17 14 13 11 7 9 16 11 10 9 9 6 8 11 13 12 7 7 7 8 7 10 11 13 17 16 16 11 8 8 6 2 5 7 9 5 12 8 6 6 12 15 16 13 9 8 9 9 9 7 7 5
19 17 15 12 11 6 6 11 12 12 15 12 9 10 10 8 7 8 8 10 10 13 14 14 15 17 14 6 0 5 11 5 2 3 10 9 5 12 5 7 5 6 9 12 11 9 8 8 7 5 3 2 10 12
16 15 13 10 6 4 4 7 8 6 8 3 3 2 6 10 7 6 7 6 7 11 13 11 8 1 5 7 8 10 5 6 7 10 8 12 17 12 15 17 11 11 11 8 9 8 10 20 23 21 22 22 21 21
15 13 10 7 4 3 3 3 5 5 5 5 2 1 10 19 16 9 8 5 7 5 7 11 12 15 15 12 11 6 5 7 11 9 11 14 19 18 17 16 17 19 28 30 28 29 29 27 24 21 19 17 15 16
8 7 3 2 2 3 6 10 10 9 7 6 10 17 23 27 27 28 22 14 17 17 15 16 16 18 15 13 17 20 22 23 28 30 35 36 36 34 31 30 30 30 29 27 26 24 24 18 16 17 16 15 13 10
3 3 5 6 7 8 9 11 10 11 13 19 26 26 27 30 33 32 31 21 19 21 19 18 18 18 25 30 28 30 30 27 26 28 28 27 32 32 29 29 26 25 21 18 19 18 14 12 9 10 9 7 7 7
3 4 6 7 9 9 10 12 13 16 24 24 15 18 27 27 22 24 36 31 22 23 23 26 25 27 31 28 29 32 28 27 23 24 26 23 21 20 20 20 19 19 19 16 12 9 9 7 5 6 7 7 6 6
7 7 11 13 13 13 16 14 12 17 23 17 19 19 15 15 19 23 33 40 35 27 27 26 24 28 27 26 24 23 21 19 18 22 21 18 15 13 12 9 9 10 10 8 9 10 10 8 6 5 5 5 5 5
9 13 15 15 13 11 15 15 14 16 18 15 10 6 11 19 20 17 23 35 32 30 28 27 26 25 24 23 22 20 19 18 18 18 18 19 18 17 15 13 13 12 10 9 8 7 6 5 4 5 6 6 5 6
11 8 9 8 5 4 3 8 14 18 17 26 31 30 26 24 22 20 19 18 22 20 20 22 22 22 22 22 22 21 19 17 15 15 15 15 14 13 11 10 9 8 8 7 6 6 8 8 8 8 10 12 12 14
16 14 15 14 21 27 27 28 31 38 32 29 27 24 22 22 21 21 21 22 19 17 17 17 18 17 18 17 17 17 16 15 13 11 10 9 8 7 7 7 8 9 10 10 11 9 8 9 10 12 13 16 19 19
30 32 35 34 33 38 42 35 30 32 29 25 23 22 22 20 19 18 17 19 19 16 11 12 13 13 12 12 12 11 10 12 13 11 10 12 13 11 11 10 8 8 8 8 8 9 10 12 14 17 19 19 20 21
26 27 30 29 30 29 27 25 24 24 22 19 18 17 19 18 19 16 12 12 12 12 11 9 9 11 11 11 10 11 11 12 12 9 8 7 6 7 8 8 9 9 9 9 10 12 13 14 14 15 16 17 18 19
20 22 23 25 24 20 21 22 19 16 12 11 11 11 10 8 12 11 8 5 7 9 8 7 6 3 5 6 6 6 7 8 8 7 6 6 7 8 8 9 10 11 12 12 13 13 13 13 13 14 15 17 20 22
Wind_Direction
277 277 276 274 269 266 261 258 253 256 265 276 286 300 312 309 297 285 276 277 283 285 261 248 243 230 226 242 244 242 254 245 230 222 223 224 230 216 222 218 219 224 230 240 247 229 238 229 239 252 252 193 178 195
275 273 271 270 268 263 258 254 250 249 257 268 276 284 296 306 311 303 288 283 286 283 273 261 244 233 225 227 228 234 231 217 214 214 208 212 216 221 226 232 247 238 234 233 224 230 213 224 239 225 221 220 186 190
276 273 270 266 263 260 255 249 245 243 250 258 265 272 283 298 314 318 314 300 295 297 286 275 241 219 205 208 221 229 229 228 224 212 196 190 190 221 233 233 231 230 243 225 227 223 220 219 226 227 226 240 239 212
273 273 270 265 260 255 251 246 239 237 243 252 261 266 274 288 306 318 317 309 306 312 316 322 212 213 202 215 227 228 233 242 237 226 221 200 170 202 188 220 228 225 225 211 208 195 186 192 212 226 219 220 234 245
269 267 267 266 260 252 247 243 235 232 238 247 256 262 269 279 296 311 311 303 302 305 292 183 180 196 209 218 225 226 234 239 231 225 237 269 243 185 175 197 188 195 225 220 181 188 172 181 191 188 180 190 204 225
263 261 261 258 256 250 243 241 234 228 233 241 250 259 265 274 290 306 312 309 300 308 313 199 193 188 191 228 203 256 250 235 235 221 210 252 232 228 213 194 201 194 154 159 182 182 176 154 163 181 199 213 232 235
262 263 255 253 247 245 240 238 234 229 229 238 245 254 261 270 282 294 294 298 304 323 223 170 185 206 234 232 223 242 272 266 242 239 223 228 243 230 255 216 192 213 213 192 158 149 193 191 200 168 204 173 178 211
255 254 252 249 247 242 238 234 231 229 226 230 237 246 253 264 275 282 284 282 296 328 180 170 173 177 215 218 225 241 250 267 235 229 231 234 210 226 237 237 237 221 259 243 236 221 252 261 239 206 235 222 221 231
250 249 244 241 244 242 239 232 228 225 223 222 224 236 251 263 275 279 292 318 308 273 237 185 164 183 197 197 222 241 220 237 235 237 234 224 220 224 261 243 248 255 248 248 247 244 249 254 249 248 236 225 223 226
242 242 242 237 237 237 231 223 219 213 212 214 219 224 234 252 262 258 303 334 16 49 171 180 166 198 221 295 259 251 245 236 241 225 220 235 246 245 240 237 259 275 239 251 251 258 252 238 230 220 215 209 215 230
237 232 236 233 229 226 216 210 206 199 197 201 208 220 243 209 212 174 85 73 50 86 99 153 195 215 289 296 282 234 235 234 228 225 212 237 236 239 237 231 233 238 236 238 251 248 245 234 225 230 221 216 217 224
231 225 225 225 219 212 202 197 192 191 192 187 188 190 160 164 145 110 108 95 93 110 123 101 319 329 322 311 238 228 229 237 223 209 203 209 215 228 225 227 238 237 236 237 237 229 243 225 217 228 235 233 221 218
218 216 209 206 201 196 190 188 187 186 186 193 194 181 176 168 119 123 152 212 209 194 179 195 294 329 321 317 253 244 239 235 237 216 209 189 210 218 226 223 229 232 231 225 229 226 211 207 219 232 252 231 215 205
203 201 190 188 183 182 181 180 180 176 171 163 162 156 130 129 134 103 58 33 31 22 108 228 281 290 290 291 254 242 244 248 239 240 225 225 220 225 235 235 233 232 229 224 224 226 212 220 229 228 230 213 205 212
191 185 181 177 171 170 172 173 174 171 168 159 135 117 125 140 135 105 51 30 338 304 292 286 296 284 264 248 249 256 245 240 238 220 323 323 240 232 251 242 254 240 229 221 217 214 204 212 234 234 231 222 216 217
179 174 174 169 162 162 166 168 170 166 163 128 113 103 65 23 173 176 322 337 315 296 293 303 276 264 237 214 234 238 247 236 229 268 293 293 297 295 280 252 277 221 212 204 197 203 206 221 227 223 222 197 200 201
166 165 162 159 156 155 155 160 163 156 135 129 105 85 125 105 163 172 11 356 332 308 300 282 259 248 229 232 226 237 253 284 296 298 299 300 299 272 221 250 236 204 203 198 191 197 208 207 229 255 194 183 174 202
157 155 151 150 147 147 149 154 153 142 139 121 115 99 101 73 325 319 317 319 306 263 261 266 260 267 269 255 248 255 291 303 305 312 308 309 287 160 153 148 177 184 194 188 182 200 205 208 217 174 154 162 204 229
151 146 143 141 144 147 147 155 143 144 135 135 144 173 224 263 280 290 300 299 304 303 247 249 253 260 265 275 285 291 293 285 296 319 340 355 135 153 80 133 145 186 202 188 188 190 197 199 211 200 207 213 215 223
147 145 141 138 140 142 127 152 159 158 182 202 214 241 273 289 294 295 291 276 270 267 258 254 266 274 279 290 299 310 310 310 308 296 140 124 128 134 129 129 127 142 131 163 176 183 192 199 203 206 213 227 249 276
142 149 148 139 137 134 143 161 175 197 210 229 254 276 293 299 293 292 293 295 279 266 269 262 272 295 302 307 51 99 62 33 19 127 164 184 148 142 146 164 138 136 162 167 177 189 196 208 219 225 169 284 138 140
135 142 151 155 144 121 158 178 200 224 216 254 234 255 311 297 288 284 309 304 256 258 277 287 285 208 135 116 103 125 107 62 99 90 93 136 141 144 137 137 141 134 131 129 145 161 134 116 111 115 110 106 111 118
133 139 145 150 154 158 171 189 196 171 148 136 152 135 91 84 82 110 87 69 59 71 104 110 109 109 90 93 116 115 103 117 111 96 104 115 126 130 134 130 125 117 115 112 112 112 111 104 98 101 102 100 103 114
116 117 132 203 139 123 123 121 114 112 120 116 112 111 99 88 87 78 90 84 73 86 97 99 97 103 107 116 102 100 101 103 101 104 106 108 111 110 110 110 110 108 106 107 105 106 108 97 96 104 111 117 125 137
92 90 91 87 104 106 99 109 116 111 114 123 113 106 94 82 70 74 87 94 93 95 95 101 111 124 117 114 105 108 105 105 109 114 117 111 112 113 114 113 110 100 101 107 112 117 108 101 78 87 74 69 66 61
80 60 110 111 107 109 117 122 115 110 134 126 105 100 94 83 77 63 79 92 110 99 99 117 113 111 120 111 114 112 107 106 103 106 105 105 107 105 109 112 110 108 118 113 98 107 130 129 80 61 59 53 42 32
66 83 102 111 115 119 121 109 102 131 139 121 117 101 79 73 70 68 88 88 91 103 100 106 108 113 114 115 114 111 110 114 122 124 123 122 119 119 118 118 120 105 97 90 87 87 87 80 67 46 22 10 7 0
96 106 108 105 117 110 103 113 103 127 137 128 107 76 97 101 93 82 75 91 92 89 92 97 100 102 106 106 104 104 104 101 101 102 107 111 106 102 102 102 99 95 93 88 82 75 66 53 38 25 25 25 23 15
95 110 127 142 158 147 100 110 109 129 126 120 115 112 112 110 108 103 89 79 88 92 92 95 99 100 101 103 103 102 99 94 93 99 101 101 102 104 106 106 103 102 96 90 82 76 74 70 58 39 24 12 2 358
92 104 106 114 119 105 100 104 116 112 110 111 114 119 121 111 97 86 73 62 66 81 91 94 97 96 95 93 94 97 99 97 94 85 76 85 102 113 115 100 80 69 63 61 61 51 37 26 15 360 352 352 348 343
98 104 102 88 94 116 118 122 125 123 118 117 121 115 108 105 94 82 71 60 54 59 72 77 79 75 75 80 83 79 80 83 84 84 79 79 82 85 83 77 69 61 53 40 28 15 1 355 352 346 342 338 336 334
119 113 103 104 108 107 100 103 107 110 121 126 125 124 123 113 98 87 65 31 31 49 65 78 98 95 91 87 86 86 79 72 68 71 77 75 62 55 51 45 39 30 18 11 2 352 345 343 338 332 330 334 332 330
120 125 127 123 124 122 121 126 122 116 109 103 108 117 115 108 108 104 85 42 12 22 38 56 74 100 91 89 82 75 74 69 56 54 53 43 31 23 19 12 0 353 350 348 342 338 337 334 333 335 337 336 336 336
Height
3067 3068 3068 3068 3068 3068 3068 3068 3069 3070 3070 3070 3069 3069 3068 3067 3067 3066 3066 3066 3067 3066 3066 3065 3066 3070 3073 3075 3077 3079 3083 3084 3086 3088 3089 3089 3090 3090 3091 3092 3093 3096 3098 3100 3102 3104 3105 3106 3110 3114 3112 3112 3114 3117
3063 3063 3063 3064 3064 3064 3065 3065 3066 3067 3067 3067 3067 3067 3066 3066 3064 3064 3063 3063 3063 3063 3064 3063 3064 3066 3070 3072 3074 3076 3078 3079 3081 3083 3084 3085 3087 3087 3087 3089 3090 3094 3096 3097 3100 3100 3100 3103 3106 3108 3110 3112 3113 3116
3058 3058 3059 3059 3059 3060 3061 3061 3062 3063 3065 3065 3065 3065 3065 3064 3063 3062 3061 3061 3060 3060 3061 3060 3060 3062 3065 3069 3070 3073 3074 3076 3078 3079 3081 3081 3083 3085 3086 3087 3087 3088 3090 3092 3096 3096 3098 3102 3103 3104 3107 3110 3111 3114
3054 3054 3055 3055 3055 3056 3057 3058 3059 3060 3061 3062 3062 3062 3062 3062 3062 3061 3060 3059 3060 3059 3058 3059 3059 3061 3064 3066 3069 3071 3072 3073 3075 3078 3079 3079 3080 3082 3083 3084 3086 3087 3088 3088 3090 3092 3094 3097 3100 3101 3103 3106 3109 3111
3050 3050 3051 3051 3052 3052 3053 3054 3055 3057 3058 3059 3060 3060 3060 3060 3060 3060 3059 3058 3058 3060 3058 3059 3060 3061 3063 3065 3067 3068 3070 3071 3072 3074 3076 3079 3077 3081 3080 3082 3083 3084 3086 3088 3088 3091 3092 3095 3097 3099 3101 3103 3105 3107
3046 3046 3047 3048 3048 3049 3050 3051 3052 3054 3055 3056 3057 3057 3058 3058 3058 3058 3057 3057 3056 3056 3057 3058 3060 3060 3062 3063 3064 3066 3067 3068 3069 3070 3071 3075 3079 3079 3080 3080 3082 3083 3084 3086 3088 3090 3092 3093 3095 3097 3099 3102 3104 3104
3042 3043 3043 3044 3045 3046 3047 3048 3050 3051 3052 3053 3054 3055 3056 3056 3056 3057 3058 3057 3055 3055 3056 3057 3058 3059 3061 3062 3062 3063 3064 3064 3065 3066 3068 3072 3073 3076 3077 3076 3078 3081 3083 3085 3086 3087 3090 3092 3094 3096 3097 3099 3100 3102
3038 3039 3040 3041 3041 3042 3044 3046 3047 3048 3050 3051 3052 3053 3054 3054 3055 3055 3055 3054 3054 3054 3054 3055 3056 3059 3060 3060 3061 3061 3061 3061 3061 3062 3065 3067 3071 3072 3069 3072 3074 3074 3079 3081 3082 3085 3087 3089 3091 3093 3095 3095 3096 3097
3035 3036 3037 3038 3039 3039 3041 3043 3045 3046 3048 3049 3051 3051 3052 3053 3053 3053 3052 3052 3052 3056 3053 3054 3055 3057 3058 3058 3058 3059 3058 3058 3059 3059 3062 3066 3066 3065 3065 3067 3070 3074 3074 3076 3077 3079 3081 3083 3085 3088 3090 3092 3092 3095
3030 3032 3033 3034 3036 3037 3038 3040 3042 3044 3046 3047 3050 3051 3051 3052 3052 3052 3052 3052 3052 3051 3053 3054 3055 3056 3058 3057 3057 3058 3056 3056 3055 3056 3058 3058 3059 3063 3063 3063 3066 3069 3071 3072 3073 3075 3076 3077 3079 3081 3084 3087 3089 3090
3026 3028 3029 3032 3033 3034 3036 3038 3040 3042 3044 3046 3047 3049 3050 3050 3051 3051 3052 3052 3052 3053 3054 3054 3055 3056 3056 3055 3054 3055 3054 3054 3053 3053 3054 3053 3053 3053 3055 3057 3059 3062 3064 3066 3069 3070 3072 3073 3075 3076 3078 3081 3083 3086
3022 3024 3026 3029 3030 3032 3034 3036 3039 3041 3043 3045 3047 3048 3049 3050 3051 3052 3052 3053 3053 3055 3055 3056 3056 3055 3055 3053 3052 3053 3053 3052 3050 3050 3051 3051 3051 3050 3051 3052 3055 3057 3059 3061 3063 3064 3066 3068 3070 3072 3074 3076 3078 3081
3018 3020 3023 3026 3028 3031 3033 3035 3038 3040 3042 3044 3046 3048 3048 3050 3051 3052 3052 3053 3053 3053 3054 3055 3055 3054 3054 3053 3052 3051 3050 3049 3049 3048 3047 3047 3046 3046 3047 3048 3049 3051 3054 3056 3057 3059 3061 3064 3066 3068 3070 3071 3073 3077
3014 3018 3022 3025 3027 3030 3032 3034 3037 3039 3042 3045 3046 3047 3049 3049 3050 3052 3052 3052 3052 3052 3054 3054 3054 3053 3052 3051 3050 3048 3048 3047 3046 3044 3044 3044 3043 3043 3043 3044 3044 3046 3049 3050 3053 3055 3058 3060 3063 3066 3067 3069 3071 3074
3012 3016 3020 3023 3026 3029 3031 3034 3037 3039 3042 3044 3046 3047 3048 3049 3050 3051 3051 3051 3052 3052 3052 3052 3051 3050 3049 3049 3048 3048 3047 3044 3041 3040 3039 3038 3038 3039 3040 3040 3040 3042 3045 3046 3049 3052 3054 3057 3059 3062 3064 3065 3068 3070
3011 3016 3020 3023 3026 3029 3031 3034 3037 3040 3043 3044 3045 3047 3048 3048 3049 3050 3050 3050 3050 3049 3049 3049 3048 3047 3046 3046 3046 3044 3043 3041 3040 3038 3037 3035 3035 3035 3034 3034 3035 3037 3040 3043 3045 3049 3052 3054 3056 3058 3061 3062 3065 3068
3011 3016 3020 3023 3027 3030 3032 3035 3038 3041 3043 3044 3046 3047 3047 3048 3049 3050 3049 3049 3048 3047 3047 3047 3046 3044 3044 3043 3042 3041 3039 3038 3037 3034 3031 3029 3027 3027 3028 3029 3030 3033 3037 3040 3043 3046 3049 3052 3054 3053 3050 3059 3063 3066
3013 3017 3021 3025 3028 3031 3033 3036 3039 3041 3043 3044 3046 3046 3047 3047 3047 3047 3047 3046 3046 3045 3045 3045 3044 3042 3042 3040 3039 3038 3037 3036 3033 3029 3027 3025 3024 3025 3026 3027 3028 3031 3035 3038 3041 3044 3048 3050 3050 3052 3055 3058 3062 3065
3016 3021 3024 3027 3030 3033 3035 3038 3040 3042 3043 3043 3044 3045 3045 3046 3045 3045 3044 3043 3042 3041 3041 3041 3041 3039 3038 3037 3036 3035 3033 3030 3028 3026 3025 3024 3024 3025 3026 3027 3029 3030 3033 3037 3041 3044 3047 3049 3051 3054 3057 3060 3062 3062
3020 3024 3027 3030 3033 3035 3036 3039 3040 3041 3041 3043 3044 3044 3044 3044 3042 3041 3041 3040 3039 3039 3039 3038 3037 3036 3035 3035 3032 3030 3029 3026 3024 3025 3025 3025 3025 3026 3028 3030 3031 3033 3035 3037 3041 3044 3047 3050 3052 3054 3055 3057 3058 3058
3025 3028 3031 3033 3035 3036 3037 3038 3040 3041 3041 3043 3043 3043 3042 3041 3040 3040 3039 3037 3036 3035 3035 3034 3034 3033 3032 3031 3030 3027 3027 3026 3024 3023 3025 3026 3027 3029 3030 3032 3034 3035 3038 3041 3044 3046 3048 3050 3052 3052 3053 3055 3057 3059
3029 3031 3034 3036 3037 3038 3039 3040 3041 3041 3043 3043 3043 3042 3041 3039 3038 3037 3035 3033 3032 3032 3031 3030 3030 3030 3031 3030 3030 3030 3030 3029 3028 3027 3027 3028 3030 3033 3034 3035 3038 3040 3042 3044 3047 3049 3050 3052 3054 3056 3058 3059 3061 3063
3032 3034 3036 3037 3038 3039 3040 3040 3040 3041 3042 3043 3043 3042 3041 3039 3038 3037 3036 3034 3032 3032 3031 3031 3031 3031 3032 3033 3033 3033 3032 3032 3032 3032 3032 3033 3035 3037 3039 3041 3042 3044 3046 3049 3052 3054 3056 3059 3061 3063 3065 3066 3068 3069
3037 3038 3038 3039 3039 3039 3040 3040 3041 3042 3044 3044 3043 3044 3044 3042 3041 3038 3036 3036 3035 3035 3035 3034 3035 3036 3036 3037 3037 3037 3038 3039 3039 3040 3042 3043 3044 3046 3049 3050 3053 3056 3058 3059 3061 3063 3065 3066 3068 3070 3071 3072 3073 3074
3041 3041 3041 3040 3040 3042 3042 3043 3044 3045 3045 3046 3047 3048 3048 3046 3043 3041 3040 3041 3040 3040 3040 3040 3041 3041 3043 3044 3045 3047 3048 3050 3051 3051 3052 3055 3055 3056 3058 3060 3062 3064 3066 3067 3068 3070 3070 3072 3072 3073 3073 3074 3074 3074
3040 3041 3042 3042 3043 3044 3045 3046 3047 3048 3049 3050 3052 3052 3051 3050 3049 3049 3046 3045 3046 3047 3048 3048 3049 3050 3051 3053 3054 3056 3057 3059 3060 3061 3061 3064 3066 3067 3067 3068 3069 3069 3071 3072 3073 3074 3074 3074 3074 3074 3075 3075 3075 3075
3043 3044 3044 3045 3046 3047 3048 3050 3051 3052 3053 3054 3055 3056 3057 3058 3058 3059 3054 3052 3053 3055 3056 3056 3057 3059 3060 3061 3063 3064 3065 3066 3067 3068 3068 3069 3071 3072 3073 3074 3074 3074 3075 3075 3075 3076 3076 3077 3076 3076 3076 3076 3076 3075
3047 3048 3049 3050 3050 3051 3052 3053 3054 3056 3058 3059 3060 3059 3061 3064 3067 3067 3065 3061 3063 3064 3065 3065 3066 3067 3068 3069 3070 3071 3072 3073 3073 3074 3074 3075 3075 3076 3076 3077 3078 3078 3078 3079 3079 3079 3079 3078 3078 3077 3077 3077 3076 3075
3052 3052 3052 3053 3053 3054 3054 3056 3057 3059 3062 3064 3065 3066 3069 3070 3072 3073 3074 3074 3073 3074 3074 3075 3075 3075 3075 3076 3076 3077 3078 3079 3080 3080 3080 3080 3081 3081 3081 3082 3082 3082 3081 3081 3081 3081 3081 3081 3080 3079 3078 3077 3075 3073
3055 3054 3054 3054 3055 3057 3059 3060 3064 3068 3070 3072 3072 3073 3075 3077 3079 3080 3080 3080 3079 3080 3080 3080 3081 3082 3082 3083 3083 3083 3083 3084 3085 3086 3085 3085 3084 3084 3084 3084 3085 3085 3084 3084 3084 3083 3082 3081 3080 3079 3077 3075 3073 3071
3063 3064 3063 3062 3065 3066 3067 3069 3072 3074 3076 3078 3080 3080 3081 3082 3084 3086 3086 3087 3087 3086 3086 3085 3085 3085 3085 3086 3086 3086 3086 3087 3087 3088 3088 3088 3087 3087 3087 3087 3087 3087 3086 3085 3084 3083 3082 3080 3078 3077 3075 3073 3071 3069
3072 3072 3073 3074 3075 3077 3078 3080 3081 3083 3084 3085 3086 3087 3088 3088 3087 3089 3091 3092 3092 3091 3091 3091 3091 3090 3090 3089 3089 3089 3089 3089 3089 3089 3089 3089 3089 3089 3088 3088 3087 3086 3086 3085 3083 3082 3080 3079 3077 3076 3073 3071 3069 3067
3079 3080 3081 3080 3082 3084 3085 3087 3088 3089 3090 3091 3092 3092 3093 3093 3092 3093 3094 3095 3095 3094 3094 3094 3094 3094 3094 3094 3093 3093 3093 3092 3092 3092 3091 3091 3090 3089 3088 3088 3086 3086 3084 3083 3082 3080 3079 3077 3075 3073 3071 3068 3065 3062